Weather History for Pittsfield, IL

Change the Weather History Date:

Thursday, November 8, 2012

  Actual Average (KUIN) Record (KUIN)
Temperature  
Mean Temperature 44 °F 46 °F  
Max Temperature 55 °F 56 °F 84 °F (1915)
Min Temperature 32 °F 37 °F 0 °F (1991)
Degree Days  
Heating Degree Days 22 19  
Month to date heating degree days 138  
Since 1 July heating degree days 562  
Cooling Degree Days 0 0  
Month to date cooling degree days 0  
Year to date cooling degree days 1093  
Moisture  
Dew Point 37 °F    
Average Humidity 76    
Maximum Humidity 100    
Minimum Humidity 53    
Precipitation  
Precipitation 0.00 in 0.10 in 0.88 in (2011)
Month to date precipitation 0.81  
Year to date precipitation 32.87  
Sea Level Pressure  
Sea Level Pressure 30.13 in    
Wind  
Wind Speed 5 mph (SSE)    
Max Wind Speed 14 mph    
Max Gust Speed 17 mph    
Visibility 8 miles    
Events      
T = Trace of Precipitation, MM = Missing Value Source: NWS Daily Summary

Daily Weather History Graph

Daily Weather History Graph

Search for Another Location

Airport:

Trip Planner

Search our weather history database for the weather conditions in past years. The results will help you decide how hot, cold, wet, or windy it might be!

Date:

Astronomy

Nov. 08, 2012 Rise Set
Actual Time 6:40 AM CST 4:53 PM CST
Civil Twilight 6:11 AM CST 5:21 PM CST
Nautical Twilight 5:39 AM CST 5:53 PM CST
Astronomical Twilight 5:07 AM CST 6:25 PM CST
Moon 12:36 AM CST (11/8) 1:33 PM CST (11/8)
Length of Visible Light 11h 10m
Length of Day
10h 13m
Waning Crescent, 32% of the Moon is Illuminated
Nov 8
Waning Crescent
Nov 13
New
Nov 20
First Quarter
Nov 28
Full
Dec 6
Last Quarter

Hourly Weather History & Observations

Time (CST) Temp. Windchill Dew Point Humidity Pressure Visibility Wind Dir Wind Speed Gust Speed Precip Events Conditions
12:15 AM 42.1 °F - 37.9 °F 85% 30.19 in 10.0 mi Calm Calm - N/A   Overcast
12:35 AM 41.2 °F 38.2 °F 37.0 °F 85% 30.19 in 10.0 mi East 4.6 mph - N/A   Overcast
12:55 AM 41.0 °F 39.0 °F 37.4 °F 87% 30.19 in 10.0 mi SE 3.5 mph - N/A   Mostly Cloudy
1:15 AM 39.7 °F - 36.3 °F 88% 30.19 in 7.0 mi Calm Calm - N/A   Scattered Clouds
1:35 AM 39.9 °F 37.8 °F 36.0 °F 86% 30.19 in 10.0 mi SW 3.5 mph - N/A   Clear
1:55 AM 37.4 °F - 35.4 °F 93% 30.19 in 7.0 mi Calm Calm - N/A   Clear
2:15 AM 38.1 °F - 35.6 °F 91% 30.19 in 7.0 mi Calm Calm - N/A   Clear
2:35 AM 36.9 °F - 35.1 °F 93% 30.19 in 5.0 mi Calm Calm - N/A   Clear
2:55 AM 35.6 °F - 34.0 °F 94% 30.19 in 4.0 mi Calm Calm - N/A   Clear
3:15 AM 35.4 °F - 33.8 °F 94% 30.19 in 5.0 mi Calm Calm - N/A   Clear
3:35 AM 34.0 °F - 32.7 °F 95% 30.19 in 4.0 mi Calm Calm - N/A   Clear
3:55 AM 32.9 °F - 32.0 °F 96% 30.19 in 2.5 mi Calm Calm - N/A   Clear
4:15 AM 34.0 °F - 33.1 °F 96% 30.19 in 4.0 mi Calm Calm - N/A   Clear
4:35 AM 33.6 °F 30.6 °F 32.5 °F 96% 30.20 in 4.0 mi SSE 3.5 mph - N/A   Clear
4:55 AM 32.0 °F - 32.0 °F 100% 30.20 in 4.0 mi Calm Calm - N/A   Clear
5:15 AM 32.7 °F 29.6 °F 32.0 °F 97% 30.20 in 3.0 mi SSE 3.5 mph - N/A   Clear
5:35 AM 33.6 °F 30.6 °F 32.7 °F 96% 30.20 in 2.0 mi SSE 3.5 mph - N/A   Clear
5:55 AM 34.0 °F 31.0 °F 33.1 °F 96% 30.20 in 3.0 mi SSE 3.5 mph - N/A   Clear
6:15 AM 34.7 °F - 33.8 °F 97% 30.20 in 4.0 mi Calm Calm - N/A   Clear
6:35 AM 33.8 °F 30.8 °F 33.8 °F 100% 30.20 in 3.0 mi SSE 3.5 mph - N/A   Clear
6:55 AM 32.9 °F 28.5 °F 32.0 °F 96% 30.20 in 2.0 mi South 4.6 mph - N/A   Clear
7:15 AM 34.0 °F 29.8 °F 33.1 °F 96% 30.20 in 4.0 mi SE 4.6 mph - N/A   Clear
7:35 AM 35.2 °F 30.3 °F 34.0 °F 95% 30.21 in 4.0 mi SSE 5.8 mph - N/A   Clear
7:55 AM 36.7 °F 32.0 °F 35.1 °F 94% 30.21 in 4.0 mi SSE 5.8 mph - N/A   Clear
8:15 AM 38.5 °F 34.1 °F 35.6 °F 89% 30.21 in 5.0 mi SSE 5.8 mph - N/A   Clear
8:35 AM 40.6 °F 36.7 °F 36.7 °F 86% 30.21 in 5.0 mi SSE 5.8 mph - N/A   Clear
8:55 AM 42.4 °F 38.1 °F 36.9 °F 81% 30.21 in 7.0 mi South 6.9 mph - N/A   Clear
9:15 AM 43.9 °F 37.9 °F 37.0 °F 77% 30.21 in 7.0 mi SSE 11.5 mph - N/A   Clear
9:35 AM 45.1 °F 39.5 °F 37.6 °F 75% 30.21 in 10.0 mi South 11.5 mph - N/A   Clear
9:55 AM 46.6 °F - 37.4 °F 70% 30.20 in 10.0 mi South 12.7 mph - N/A   Clear
10:15 AM 48.2 °F - 37.2 °F 66% 30.20 in 10.0 mi SSE 13.8 mph - N/A   Clear
10:35 AM 49.1 °F - 37.2 °F 64% 30.19 in 10.0 mi SSE 11.5 mph - N/A   Clear
10:55 AM 50.2 °F - 37.9 °F 63% 30.18 in 10.0 mi SSE 11.5 mph - N/A   Clear
11:15 AM 50.5 °F - 37.0 °F 60% 30.17 in 10.0 mi South 11.5 mph 16.1 mph N/A   Clear
11:35 AM 52.0 °F - 38.8 °F 61% 30.17 in 10.0 mi SSE 11.5 mph - N/A   Clear
11:55 AM 52.2 °F - 38.5 °F 60% 30.16 in 10.0 mi SSE 10.4 mph 16.1 mph N/A   Clear
12:15 PM 53.6 °F - 39.7 °F 59% 30.15 in 10.0 mi SSE 10.4 mph - N/A   Clear
12:35 PM 53.2 °F - 38.8 °F 58% 30.14 in 10.0 mi SSE 10.4 mph - N/A   Clear
12:55 PM 54.0 °F - 39.4 °F 58% 30.13 in 10.0 mi South 8.1 mph - N/A   Clear
1:15 PM 54.5 °F - 39.6 °F 57% 30.12 in 10.0 mi SSE 13.8 mph - N/A   Clear
1:35 PM 54.7 °F - 39.4 °F 56% 30.11 in 10.0 mi SSE 9.2 mph - N/A   Clear
1:55 PM 55.4 °F - 38.8 °F 54% 30.10 in 10.0 mi SSE 9.2 mph - N/A   Clear
2:15 PM 55.8 °F - 38.8 °F 53% 30.09 in 10.0 mi SSE 11.5 mph 17.3 mph N/A   Clear
2:35 PM 55.9 °F - 39.9 °F 55% 30.08 in 10.0 mi SE 9.2 mph - N/A   Clear
2:55 PM 55.4 °F - 40.3 °F 57% 30.08 in 10.0 mi SE 10.4 mph - N/A   Clear
3:15 PM 55.6 °F - 39.7 °F 55% 30.08 in 10.0 mi SE 9.2 mph - N/A   Clear
3:35 PM 55.6 °F - 39.9 °F 56% 30.08 in 10.0 mi SSE 9.2 mph - N/A   Clear
3:55 PM 55.0 °F - 38.8 °F 54% 30.08 in 10.0 mi SE 10.4 mph - N/A   Clear
4:15 PM 54.1 °F - 39.2 °F 57% 30.08 in 10.0 mi SE 6.9 mph - N/A   Clear
4:35 PM 52.9 °F - 39.2 °F 60% 30.08 in 10.0 mi SSE 9.2 mph - N/A   Clear
4:55 PM 51.4 °F - 39.2 °F 63% 30.08 in 10.0 mi SE 8.1 mph - N/A   Clear
5:15 PM 49.8 °F - 39.2 °F 67% 30.07 in 10.0 mi SE 9.2 mph - N/A   Clear
5:35 PM 49.3 °F - 38.5 °F 66% 30.07 in 10.0 mi ESE 9.2 mph - N/A   Clear
5:55 PM 48.7 °F - 38.7 °F 68% 30.08 in 10.0 mi SE 8.1 mph - N/A   Clear
6:15 PM 48.2 °F - 38.7 °F 70% 30.07 in 10.0 mi ESE 9.2 mph - N/A   Clear
6:35 PM 47.7 °F - 38.7 °F 71% 30.07 in 10.0 mi SE 9.2 mph - N/A   Clear
6:55 PM 47.8 °F - 39.2 °F 72% 30.07 in 10.0 mi SE 9.2 mph - N/A   Clear
7:15 PM 48.2 °F - 39.4 °F 72% 30.06 in 10.0 mi SE 9.2 mph - N/A   Clear
7:35 PM 48.0 °F - 39.4 °F 72% 30.06 in 10.0 mi SE 9.2 mph - N/A   Clear
7:55 PM 47.7 °F - 39.4 °F 73% 30.05 in 10.0 mi SE 9.2 mph - N/A   Clear
8:15 PM 47.5 °F - 39.6 °F 74% 30.05 in 10.0 mi SSE 10.4 mph - N/A   Clear
8:35 PM 46.9 °F - 39.6 °F 76% 30.05 in 10.0 mi SSE 10.4 mph - N/A   Clear
8:55 PM 46.6 °F - 39.4 °F 76% 30.04 in 10.0 mi SSE 9.2 mph - N/A   Clear
9:15 PM 45.9 °F 42.9 °F 39.2 °F 78% 30.04 in 10.0 mi SSE 5.8 mph - N/A   Clear
9:35 PM 45.1 °F 41.4 °F 38.8 °F 79% 30.05 in 10.0 mi South 6.9 mph - N/A   Clear
9:55 PM 45.5 °F 41.8 °F 38.7 °F 77% 30.04 in 10.0 mi SSE 6.9 mph - N/A   Clear
10:15 PM 45.9 °F 42.9 °F 38.5 °F 75% 30.04 in 10.0 mi SE 5.8 mph - N/A   Clear
10:35 PM 45.7 °F 43.4 °F 38.3 °F 75% 30.04 in 10.0 mi SSE 4.6 mph - N/A   Clear
10:55 PM 46.8 °F - 38.1 °F 72% 30.05 in 10.0 mi Calm Calm - N/A   Clear
11:15 PM 47.8 °F - 37.9 °F 69% 30.06 in 10.0 mi SSW 5.8 mph - N/A   Clear
11:35 PM 48.2 °F - 38.3 °F 69% 30.06 in 10.0 mi South 6.9 mph - N/A   Clear
11:55 PM 46.9 °F - 38.3 °F 72% 30.05 in 10.0 mi South 5.8 mph - N/A   Clear